Surface/Precipitation History
03/29/2017 00:52  to  3/30/2017 00:52
Change End Date:
Date/Time
(MDT)
Sf
Temp Chem Water Layer Surface Precipitation
Sfc Pvt Sub Frz Factor Pct Dpth DpthThk IcePct Cond Salin FI Type Intens Accum Rate
03/30/2017 00:46 Wet 41.5F - 44F 32F 5 0% 0.00 in - 0% 0 mhos 25 - Yes - - -
03/30/2017 00:40 Wet 41.5F - 44F 32F 5 0% 0.00 in - 0% 0 mhos 25 - None None - -
03/30/2017 00:31 Wet 41.5F - 44F 32F 5 0% 0.00 in - 0% 0 mhos 25 - None None - -
03/30/2017 00:30 Wet 41.5F - 44F 32F 5 0% 0.00 in - 0% 0 mhos 25 - None None - -
03/30/2017 00:20 Wet 41.7F - 44F 32F 5 0% 0.00 in - 0% 0 mhos 25 - None None - -
03/30/2017 00:16 Wet 41.7F - 44F 32F 5 0% 0.00 in - 0% 0 mhos 26 - None None - -
03/30/2017 00:10 Wet 41.7F - 44F 32F 5 0% 0.00 in - 0% 0 mhos 26 - None None - -
03/30/2017 00:01 Wet 41.7F - 44F 32F 5 0% 0.00 in - 0% 0 mhos 25 - None None - -
03/30/2017 00:00 Wet 41.9F - 44F 32F 5 0% 0.00 in - 0% 0 mhos 24 - None None - -
03/29/2017 23:50 Wet 41.9F - 44F 32F 5 0% 0.00 in - 0% 0 mhos 24 - None None - -
03/29/2017 23:46 Wet 41.9F - 44F 32F 5 0% 0.00 in - 0% 0 mhos 24 - None None - -
03/29/2017 23:40 Wet 41.9F - 44F 32F 5 0% 0.00 in - 0% 0 mhos 23 - None None - -
03/29/2017 23:31 Wet 42.1F - 44F 32F 5 0% 0.00 in - 0% 0 mhos 20 - None None - -
03/29/2017 23:30 Wet 42.3F - 44F 32F 5 0% 0.00 in - 0% 0 mhos 20 - None None - -
03/29/2017 23:19 Wet 42.3F - 44F 32F 5 0% 0.00 in - 0% 0 mhos 19 - None None - -
Date/Time
(MDT)
Sf
Temp Chem Water Layer Surface Precipitation
Sfc Pvt Sub Frz Factor Pct Dpth DpthThk IcePct Cond Salin FI Type Intens Accum Rate
03/29/2017 23:16 Wet 42.3F - 44F 32F 5 0% 0.00 in - 0% 0 mhos 18 - None None - -
03/29/2017 23:09 Wet 42.4F - 44F 32F 5 0% 0.00 in - 0% 0 mhos 18 - None None - -
03/29/2017 23:01 Wet 42.4F - 44F 32F 5 0% 0.00 in - 0% 0 mhos 17 - None None - -
03/29/2017 22:59 Wet 42.4F - 44F 32F 5 0% 0.00 in - 0% 0 mhos 17 - None None - -
03/29/2017 22:49 Wet 42.4F - 44F 32F 5 0% 0.00 in - 0% 0 mhos 16 - None None - -
03/29/2017 22:46 Wet 42.4F - 45F 32F 5 0% 0.00 in - 0% 0 mhos 15 - None None - -
03/29/2017 22:39 Wet 42.4F - 45F 32F 5 0% 0.00 in - 0% 0 mhos 12 - None None - -
03/29/2017 22:31 Wet 42.4F - 45F 32F 5 0% 0.00 in - 0% 0 mhos 25 - None None - -
03/29/2017 22:29 Wet 42.4F - 45F 32F 5 0% 0.00 in - 0% 0 mhos 25 - None None - -
03/29/2017 22:19 Wet 42.6F - 45F 32F 5 0% 0.00 in - 0% 0 mhos 26 - None None - -
03/29/2017 22:16 Wet 42.6F - 45F 32F 5 0% 0.00 in - 0% 0 mhos 26 - None None - -
03/29/2017 22:09 Wet 42.8F - 45F 32F 5 0% 0.00 in - 0% 0 mhos 26 - Yes - - -
03/29/2017 22:01 Wet 42.8F - 45F 32F 5 0% 0.00 in - 0% 0 mhos 26 - Yes - - -
03/29/2017 21:59 Wet 42.8F - 45F 32F 5 0% 0.00 in - 0% 0 mhos 26 - Yes - - -
03/29/2017 21:49 Wet 43.0F - 45F 32F 5 0% 0.00 in - 0% 0 mhos 24 - None None - -
Date/Time
(MDT)
Sf
Temp Chem Water Layer Surface Precipitation
Sfc Pvt Sub Frz Factor Pct Dpth DpthThk IcePct Cond Salin FI Type Intens Accum Rate
03/29/2017 21:46 Wet 43.0F - 45F 32F 5 0% 0.00 in - 0% 0 mhos 24 - None None - -
03/29/2017 21:39 Wet 43.0F - 45F 32F 5 0% 0.00 in - 0% 0 mhos 24 - None None - -
03/29/2017 21:31 Wet 43.2F - 45F 32F 5 0% 0.00 in - 0% 0 mhos 22 - None None - -
03/29/2017 21:29 Wet 43.2F - 45F 32F 5 0% 0.00 in - 0% 0 mhos 22 - None None - -
03/29/2017 21:19 Wet 43.2F - 45F 32F 5 0% 0.00 in - 0% 0 mhos 21 - None None - -
03/29/2017 21:16 Wet 43.3F - 45F 32F 5 0% 0.00 in - 0% 0 mhos 21 - None None - -
03/29/2017 21:09 Wet 43.3F - 45F 32F 5 0% 0.00 in - 0% 0 mhos 20 - None None - -
03/29/2017 21:01 Wet 43.7F - 44F 32F 5 0% 0.00 in - 0% 0 mhos 19 - None None - -
03/29/2017 20:59 Wet 43.5F - 44F 32F 5 0% 0.00 in - 0% 0 mhos 19 - None None - -
03/29/2017 20:49 Wet 43.7F - 44F 32F 5 0% 0.00 in - 0% 0 mhos 18 - None None - -
03/29/2017 20:46 Wet 43.7F - 44F 32F 5 0% 0.00 in - 0% 0 mhos 17 - None None - -
03/29/2017 20:39 Wet 43.9F - 44F 32F 5 0% 0.00 in - 0% 0 mhos 14 - None None - -
03/29/2017 20:31 Wet 44.6F - 44F 32F 5 0% 0.00 in - 0% 0 mhos 14 - Yes - - -
03/29/2017 20:29 Wet 44.6F - 44F 32F 5 0% 0.00 in - 0% 0 mhos 14 - Yes - - -
03/29/2017 20:19 Wet 45.0F - 44F 32F 70 0% 0.00 in - 0% 0 mhos 14 - Yes - - -
Date/Time
(MDT)
Sf
Temp Chem Water Layer Surface Precipitation
Sfc Pvt Sub Frz Factor Pct Dpth DpthThk IcePct Cond Salin FI Type Intens Accum Rate
03/29/2017 20:16 Wet 45.0F - 44F 32F 65 0% 0.00 in - 0% 0 mhos 14 - Yes - - -
03/29/2017 20:08 Wet 45.0F - 44F 32F 55 0% 0.00 in - 0% 0 mhos 19 - Yes - - -
03/29/2017 20:01 Wet 45.1F - 44F 32F 5 0% 0.00 in - 0% 0 mhos 23 - Yes - - -
03/29/2017 19:58 Wet 45.3F - 44F 32F 60 0% 0.00 in - 0% 0 mhos 25 - Yes - - -
03/29/2017 19:48 Wet 45.5F - 44F 32F 40 0% 0.00 in - 0% 0 mhos 30 - Yes - - -
03/29/2017 19:46 Wet 45.7F - 44F 32F 20 0% 0.00 in - 0% 0 mhos 30 - Yes - - -
03/29/2017 19:38 Wet 45.9F - 44F 32F 20 0% 0.00 in - 0% 0 mhos 43 - Yes - - -
03/29/2017 19:31 Wet 46.0F - 44F 32F 5 0% 0.00 in - 0% 1 mhos 51 - Yes - - -
03/29/2017 19:28 Wet 46.0F - 44F 32F 5 0% 0.00 in - 0% 0 mhos 39 - Yes - - -
03/29/2017 19:18 Wet 46.4F - 44F 32F 5 0% 0.00 in - 0% 0 mhos 7 - Yes - - -
03/29/2017 19:16 Wet 46.4F - 44F 32F 5 0% 0.00 in - 0% 0 mhos 4 - Yes - - -
03/29/2017 19:08 Wet 46.6F - 44F 32F 5 0% 0.00 in - 0% 0 mhos 1 - Yes - - -
03/29/2017 19:01 Wet 46.6F - 44F 32F 5 0% 0.00 in - 0% 0 mhos 0 - Yes - - -
03/29/2017 18:58 Wet 46.9F - 44F 32F 5 0% 0.00 in - 0% 0 mhos 0 - Yes - - -
03/29/2017 18:48 Wet 47.5F - 44F 32F 5 0% 0.00 in - 0% 0 mhos 0 - Yes - - -
Date/Time
(MDT)
Sf
Temp Chem Water Layer Surface Precipitation
Sfc Pvt Sub Frz Factor Pct Dpth DpthThk IcePct Cond Salin FI Type Intens Accum Rate
03/29/2017 18:46 Wet 47.5F - 44F 32F 5 0% 0.00 in - 0% 0 mhos 0 - Yes - - -
03/29/2017 18:38 Wet 47.7F - 44F 32F 5 0% 0.00 in - 0% 0 mhos 1 - Yes - - -
03/29/2017 18:31 Wet 48.0F - 44F 32F 5 0% 0.00 in - 0% 0 mhos 1 - None None - -
03/29/2017 18:28 Wet 48.0F - 44F 32F 5 0% 0.00 in - 0% 0 mhos 1 - Yes - - -
03/29/2017 18:18 Wet 49.1F - 44F 32F 5 0% 0.00 in - 0% 0 mhos 0 - Yes - - -
03/29/2017 18:16 Wet 49.5F - 44F 32F 5 0% 0.00 in - 0% 0 mhos 1 - Yes - - -
03/29/2017 18:08 Wet 50.2F - 44F 32F 5 0% 0.00 in - 0% 0 mhos 1 - None None - -
03/29/2017 18:01 Wet 50.2F - 44F 32F 5 0% 0.00 in - 0% 0 mhos 1 - Yes - - -
03/29/2017 17:58 Wet 50.0F - 44F 32F 5 0% 0.00 in - 0% 0 mhos 1 - Yes - - -
03/29/2017 17:48 Wet 50.9F - 44F 32F 5 0% 0.00 in - 0% 0 mhos 2 - None None - -
03/29/2017 17:46 Wet 50.9F - 44F 32F 5 0% 0.00 in - 0% 0 mhos 2 - None None - -
03/29/2017 17:38 Wet 50.7F - 44F 32F 5 0% 0.00 in - 0% 0 mhos 5 - Yes - - -
03/29/2017 17:31 Wet 51.1F - 44F 32F 5 0% 0.00 in - 0% 0 mhos 10 - Yes - - -
03/29/2017 17:28 Wet 51.4F - 44F 32F 5 0% 0.00 in - 0% 0 mhos 12 - Yes - - -
03/29/2017 17:18 Wet 52.7F - 44F 32F 5 0% 0.00 in - 0% 0 mhos 17 - None None - -
Date/Time
(MDT)
Sf
Temp Chem Water Layer Surface Precipitation
Sfc Pvt Sub Frz Factor Pct Dpth DpthThk IcePct Cond Salin FI Type Intens Accum Rate
03/29/2017 17:16 Wet 52.2F - 44F 32F 5 0% 0.00 in - 0% 0 mhos 17 - None None - -
03/29/2017 17:08 Wet 52.0F - 44F 32F 5 0% 0.00 in - 0% 0 mhos 18 - None None - -
03/29/2017 17:01 Wet 52.5F - 44F 32F 5 0% 0.00 in - 0% 0 mhos 20 - None None - -
03/29/2017 16:57 Wet 52.5F - 44F 32F 5 0% 0.00 in - 0% 0 mhos 19 - None None - -
03/29/2017 16:47 Wet 53.1F - 44F 32F 5 0% 0.00 in - 0% 0 mhos 17 - None None - -
03/29/2017 16:46 Wet 54.0F - 44F 32F 5 0% 0.00 in - 0% 0 mhos 15 - None None - -
03/29/2017 16:37 Wet 54.1F - 44F 32F 5 0% 0.00 in - 0% 0 mhos 16 - Yes - - -
03/29/2017 16:31 Wet 54.9F - 44F 32F 5 0% 0.00 in - 0% 0 mhos 23 - Yes - - -
03/29/2017 16:27 Wet 55.0F - 44F 32F 5 0% 0.00 in - 0% 0 mhos 19 - Yes - - -
03/29/2017 16:17 Wet 54.1F - 44F 32F 5 0% 0.00 in - 0% 0 mhos 20 - Yes - - -
03/29/2017 16:16 Wet 54.7F - 44F 32F 5 0% 0.00 in - 0% 0 mhos 21 - Yes - - -
03/29/2017 16:07 Wet 57.0F - 44F 32F 5 0% 0.00 in - 0% 0 mhos 17 - Yes - - -
03/29/2017 16:01 Wet 56.8F - 44F 32F 5 0% 0.00 in - 0% 0 mhos 18 - Yes - - -
03/29/2017 15:57 Wet 55.0F - 44F 32F 5 0% 0.00 in - 0% 0 mhos 18 - Yes - - -
03/29/2017 15:47 Wet 55.2F - 44F 32F 5 0% 0.00 in - 0% 0 mhos 26 - Yes - - -
Date/Time
(MDT)
Sf
Temp Chem Water Layer Surface Precipitation
Sfc Pvt Sub Frz Factor Pct Dpth DpthThk IcePct Cond Salin FI Type Intens Accum Rate
03/29/2017 15:46 Wet 54.1F - 44F 32F 5 0% 0.00 in - 0% 0 mhos 24 - Yes - - -
03/29/2017 15:37 Wet 52.5F - 44F 32F 5 0% 0.00 in - 0% 0 mhos 15 - Yes - - -
03/29/2017 15:31 Wet 53.4F - 44F 32F 5 0% 0.00 in - 0% 0 mhos 9 - Yes - - -
03/29/2017 15:27 Wet 54.9F - 43F 32F 5 0% 0.00 in - 0% 0 mhos 4 - Yes - - -
03/29/2017 15:17 Wet 57.2F - 43F 32F 5 0% 0.00 in - 0% 0 mhos 1 - Yes - - -
03/29/2017 15:16 Wet 58.1F - 43F 32F 5 0% 0.00 in - 0% 0 mhos 1 - Yes - - -
03/29/2017 15:07 Wet 57.4F - 43F 32F 5 0% 0.00 in - 0% 0 mhos 1 - Yes - - -
03/29/2017 15:01 Wet 57.7F - 43F 32F 5 0% 0.00 in - 0% 0 mhos 1 - Yes - - -
03/29/2017 14:57 Wet 56.3F - 43F 32F 5 0% 0.00 in - 0% 0 mhos 1 - Yes - - -
03/29/2017 14:47 Wet 54.0F - 43F 32F 5 0% 0.00 in - 0% 0 mhos 3 - Yes - - -
03/29/2017 14:46 Wet 53.8F - 43F 32F 5 0% 0.00 in - 0% 0 mhos 4 - Yes - - -
03/29/2017 14:37 Wet 54.5F - 43F 32F 5 0% 0.00 in - 0% 0 mhos 12 - Yes - - -
03/29/2017 14:31 Wet 55.0F - 43F 32F 5 0% 0.00 in - 0% 0 mhos 16 - Yes - - -
03/29/2017 14:27 Wet 55.9F - 43F 32F 5 0% 0.00 in - 0% 0 mhos 16 - Yes - - -
03/29/2017 14:17 Wet 58.6F - 43F 32F 5 0% 0.00 in - 0% 0 mhos 26 - Yes - - -
Date/Time
(MDT)
Sf
Temp Chem Water Layer Surface Precipitation
Sfc Pvt Sub Frz Factor Pct Dpth DpthThk IcePct Cond Salin FI Type Intens Accum Rate
03/29/2017 14:16 Wet 58.6F - 43F 32F 5 0% 0.00 in - 0% 0 mhos 27 - Yes - - -
03/29/2017 14:07 Wet 59.7F - 43F 32F 5 0% 0.00 in - 0% 0 mhos 22 - Yes - - -
03/29/2017 14:01 Wet 58.6F - 43F 32F 5 0% 0.00 in - 0% 0 mhos 11 - Yes - - -
03/29/2017 13:57 Wet 59.7F - 43F 32F 5 0% 0.00 in - 0% 0 mhos 23 - Yes - - -
03/29/2017 13:46 Wet 56.8F - 43F 32F 5 0% 0.00 in - 0% 0 mhos 19 - Yes - - -
03/29/2017 13:46 Wet 56.1F - 43F 32F 5 0% 0.00 in - 0% 0 mhos 19 - None None - -
03/29/2017 13:36 Wet 54.9F - 43F 32F 5 0% 0.00 in - 0% 0 mhos 15 - Yes - - -
03/29/2017 13:31 Wet 55.0F - 43F 32F 5 0% 0.00 in - 0% 0 mhos 14 - Yes - - -
03/29/2017 13:26 Wet 54.3F - 43F 32F 15 0% 0.00 in - 0% 0 mhos 13 - Yes - - -
03/29/2017 13:16 Wet 52.7F - 43F 32F 5 0% 0.00 in - 0% 0 mhos 10 - Yes - - -
03/29/2017 13:16 Wet 52.7F - 43F 32F 5 0% 0.00 in - 0% 0 mhos 10 - Yes - - -
03/29/2017 13:06 Wet 50.2F - 43F 32F 55 0% 0.00 in - 0% 0 mhos 10 - Yes - - -
03/29/2017 13:01 Wet 48.7F - 43F 32F 5 0% 0.00 in - 0% 0 mhos 5 - Yes - - -
03/29/2017 12:56 Wet 48.0F - 43F 32F 45 0% 0.00 in - 0% 0 mhos 11 - Yes - - -
03/29/2017 12:46 Wet 47.3F - 43F 32F 35 0% 0.00 in - 0% 0 mhos 14 - Yes - - -
Date/Time
(MDT)
Sf
Temp Chem Water Layer Surface Precipitation
Sfc Pvt Sub Frz Factor Pct Dpth DpthThk IcePct Cond Salin FI Type Intens Accum Rate
03/29/2017 12:46 Wet 47.3F - 43F 32F 35 0% 0.00 in - 0% 0 mhos 14 - Yes - - -
03/29/2017 12:36 Wet 47.5F - 43F 32F 65 0% 0.00 in - 0% 0 mhos 13 - Yes - - -
03/29/2017 12:31 Wet 47.3F - 43F 32F 5 0% 0.00 in - 0% 0 mhos 15 - Yes - - -
03/29/2017 12:26 Wet 47.3F - 43F 32F 80 0% 0.00 in - 0% 0 mhos 17 - Yes - - -
03/29/2017 12:16 Wet 46.6F - 43F 32F 10 0% 0.00 in - 0% 0 mhos 17 - Yes - - -
03/29/2017 12:16 Wet 46.6F - 43F 32F 10 0% 0.00 in - 0% 0 mhos 17 - Yes - - -
03/29/2017 12:06 Wet 47.5F - 43F 32F 5 0% 0.00 in - 0% 0 mhos 18 - Yes - - -
03/29/2017 12:01 Wet 47.7F - 43F 32F 85 0% 0.00 in - 0% 0 mhos 24 - Yes - - -
03/29/2017 11:56 Wet 47.5F - 43F 32F 80 0% 0.00 in - 0% 0 mhos 24 - Yes - - -
03/29/2017 11:46 Wet 46.9F - 43F 32F 35 0% 0.00 in - 0% 0 mhos 25 - Yes - - -
03/29/2017 11:46 Wet 46.9F - 43F 32F 35 0% 0.00 in - 0% 0 mhos 25 - Yes - - -
03/29/2017 11:36 Wet 46.8F - 43F 32F 25 0% 0.00 in - 0% 0 mhos 35 - Yes - - -
03/29/2017 11:31 Wet 46.4F - 43F 32F 5 0% 0.00 in - 0% 0 mhos 30 - Yes - - -
03/29/2017 11:26 Wet 45.7F - 43F 32F 5 0% 0.00 in - 0% 0 mhos 27 - Yes - - -
03/29/2017 11:16 Wet 45.7F - 44F 32F 25 0% 0.00 in - 0% 0 mhos 33 - Yes - - -
Date/Time
(MDT)
Sf
Temp Chem Water Layer Surface Precipitation
Sfc Pvt Sub Frz Factor Pct Dpth DpthThk IcePct Cond Salin FI Type Intens Accum Rate
03/29/2017 11:16 Wet 45.7F - 44F 32F 25 0% 0.00 in - 0% 0 mhos 33 - Yes - - -
03/29/2017 11:06 Wet 45.3F - 44F 32F 10 0% 0.00 in - 0% 0 mhos 33 - Yes - - -
03/29/2017 11:01 Wet 45.5F - 44F 32F 10 0% 0.00 in - 0% 0 mhos 32 - Yes - - -
03/29/2017 10:56 Wet 45.1F - 44F 32F 10 0% 0.00 in - 0% 0 mhos 33 - Yes - - -
03/29/2017 10:46 Wet 44.1F - 44F 32F 55 0% 0.00 in - 0% 1 mhos 73 - Yes - - -
03/29/2017 10:46 Wet 44.1F - 44F 32F 55 0% 0.00 in - 0% 1 mhos 73 - Yes - - -
03/29/2017 10:35 Wet 43.7F - 44F 32F 20 0% 0.00 in - 0% 1 mhos 67 - Yes - - -
03/29/2017 10:31 Wet 43.3F - 44F 32F 15 0% 0.00 in - 0% 1 mhos 48 - Yes - - -
03/29/2017 10:25 Wet 43.5F - 44F 32F 5 0% 0.00 in - 0% 1 mhos 61 - Yes - - -
03/29/2017 10:16 Wet 43.7F - 44F 32F 45 1% 0.00 in - 0% 2 mhos 154 - Yes - - -
03/29/2017 10:15 Wet 43.7F - 44F 32F 45 1% 0.00 in - 0% 2 mhos 154 - Yes - - -
03/29/2017 10:05 Wet 43.9F - 44F 32F 5 0% 0.00 in - 0% 0 mhos 11 - Yes - - -
03/29/2017 10:01 Wet 43.7F - 44F 32F 5 0% 0.00 in - 0% 0 mhos 1 - Yes - - -
03/29/2017 09:55 Wet 44.4F - 44F 32F 5 0% 0.00 in - 0% 0 mhos 1 - Yes - - -
03/29/2017 09:46 Dry 45.0F - 44F - - - - - - 0 mhos 0 - Yes - - -
Date/Time
(MDT)
Sf
Temp Chem Water Layer Surface Precipitation
Sfc Pvt Sub Frz Factor Pct Dpth DpthThk IcePct Cond Salin FI Type Intens Accum Rate
03/29/2017 09:45 Dry 45.0F - 44F - - - - - - 0 mhos 0 - Yes - - -
03/29/2017 09:35 Dry 45.0F - 44F - - - - - - 0 mhos 0 - Yes - - -
03/29/2017 09:31 Dry 44.8F - 44F - - - - - - 0 mhos 0 - Yes - - -
03/29/2017 09:25 Dry 44.6F - 44F - - - - - - 0 mhos 0 - Yes - - -
03/29/2017 09:16 Dry 45.0F - 44F - - - - - - 0 mhos 0 - Yes - - -
03/29/2017 09:15 Dry 45.0F - 44F - - - - - - 0 mhos 0 - Yes - - -
03/29/2017 09:05 Dry 43.9F - 44F - - - - - - 0 mhos 0 - None None - -
03/29/2017 09:01 Dry 43.5F - 44F - - - - - - 0 mhos 0 - None None - -
03/29/2017 08:55 Dry 42.6F - 44F - - - - - - 0 mhos 0 - None None - -
03/29/2017 08:46 Dry 42.3F - 44F - - - - - - 0 mhos 0 - None None - -
03/29/2017 08:45 Dry 42.3F - 44F - - - - - - 0 mhos 0 - None None - -
03/29/2017 08:35 Dry 41.5F - 44F - - - - - - 0 mhos 0 - None None - -
03/29/2017 08:31 Dry 41.4F - 44F - - - - - - 0 mhos 0 - None None - -
03/29/2017 08:25 Dry 40.8F - 44F - - - - - - 0 mhos 0 - None None - -
03/29/2017 08:16 Dry 40.3F - 44F - - - - - - 0 mhos 0 - None None - -
Date/Time
(MDT)
Sf
Temp Chem Water Layer Surface Precipitation
Sfc Pvt Sub Frz Factor Pct Dpth DpthThk IcePct Cond Salin FI Type Intens Accum Rate
03/29/2017 08:15 Dry 40.3F - 44F - - - - - - 0 mhos 0 - None None - -
03/29/2017 08:05 Dry 39.9F - 44F - - - - - - 0 mhos 0 - None None - -
03/29/2017 08:01 Dry 39.6F - 44F - - - - - - 0 mhos 0 - None None - -
03/29/2017 07:55 Dry 39.6F - 44F - - - - - - 0 mhos 0 - None None - -
03/29/2017 07:46 Dry 39.4F - 44F - - - - - - 0 mhos 0 - None None - -
03/29/2017 07:45 Dry 39.4F - 44F - - - - - - 0 mhos 0 - None None - -
03/29/2017 07:35 Dry 39.4F - 44F - - - - - - 0 mhos 0 - None None - -
03/29/2017 07:31 Dry 39.4F - 44F - - - - - - 0 mhos 0 - None None - -
03/29/2017 07:24 Dry 39.4F - 44F - - - - - - 0 mhos 0 - None None - -
03/29/2017 07:16 Dry 39.4F - 44F - - - - - - 0 mhos 0 - None None - -
03/29/2017 07:14 Dry 39.4F - 44F - - - - - - 0 mhos 0 - None None - -
03/29/2017 07:04 Dry 39.6F - 44F - - - - - - 0 mhos 0 - None None - -
03/29/2017 07:01 Dry 39.6F - 44F - - - - - - 0 mhos 0 - None None - -
03/29/2017 06:54 Dry 39.6F - 44F - - - - - - 0 mhos 0 - None None - -
03/29/2017 06:46 Dry 39.6F - 44F - - - - - - 0 mhos 0 - None None - -
Date/Time
(MDT)
Sf
Temp Chem Water Layer Surface Precipitation
Sfc Pvt Sub Frz Factor Pct Dpth DpthThk IcePct Cond Salin FI Type Intens Accum Rate
03/29/2017 06:44 Dry 39.7F - 44F - - - - - - 0 mhos 0 - None None - -
03/29/2017 06:34 Dry 39.7F - 44F - - - - - - 0 mhos 0 - None None - -
03/29/2017 06:31 Dry 39.7F - 44F - - - - - - 0 mhos 0 - None None - -
03/29/2017 06:24 Dry 39.7F - 44F - - - - - - 0 mhos 0 - None None - -
03/29/2017 06:16 Dry 39.9F - 44F - - - - - - 0 mhos 0 - None None - -
03/29/2017 06:14 Dry 39.9F - 44F - - - - - - 0 mhos 0 - None None - -
03/29/2017 06:04 Dry 39.9F - 44F - - - - - - 0 mhos 0 - None None - -
03/29/2017 06:01 Dry 39.9F - 44F - - - - - - 0 mhos 0 - None None - -
03/29/2017 05:54 Dry 39.9F - 44F - - - - - - 0 mhos 0 - None None - -
03/29/2017 05:46 Dry 39.9F - 44F - - - - - - 0 mhos 0 - None None - -
03/29/2017 05:44 Dry 39.9F - 44F - - - - - - 0 mhos 0 - None None - -
03/29/2017 05:34 Dry 39.9F - 44F - - - - - - 0 mhos 0 - None None - -
03/29/2017 05:31 Dry 39.9F - 44F - - - - - - 0 mhos 0 - None None - -
03/29/2017 05:24 Dry 39.9F - 44F - - - - - - 0 mhos 0 - None None - -
03/29/2017 05:16 Dry 39.9F - 44F - - - - - - 0 mhos 0 - None None - -
Date/Time
(MDT)
Sf
Temp Chem Water Layer Surface Precipitation
Sfc Pvt Sub Frz Factor Pct Dpth DpthThk IcePct Cond Salin FI Type Intens Accum Rate
03/29/2017 05:14 Dry 39.9F - 44F - - - - - - 0 mhos 0 - None None - -
03/29/2017 05:04 Dry 40.1F - 44F - - - - - - 0 mhos 0 - None None - -
03/29/2017 05:01 Dry 40.1F - 44F - - - - - - 0 mhos 0 - None None - -
03/29/2017 04:54 Dry 40.1F - 45F - - - - - - 0 mhos 0 - None None - -
03/29/2017 04:46 Dry 40.1F - 45F - - - - - - 0 mhos 0 - None None - -
03/29/2017 04:44 Dry 40.1F - 45F - - - - - - 0 mhos 0 - None None - -
03/29/2017 04:34 Dry 40.3F - 45F - - - - - - 0 mhos 0 - None None - -
03/29/2017 04:31 Dry 40.3F - 45F - - - - - - 0 mhos 0 - None None - -
03/29/2017 04:24 Dry 40.3F - 45F - - - - - - 0 mhos 0 - None None - -
03/29/2017 04:16 Dry 40.3F - 45F - - - - - - 0 mhos 0 - None None - -
03/29/2017 04:13 Dry 40.3F - 45F - - - - - - 0 mhos 0 - None None - -
03/29/2017 04:03 Dry 40.3F - 45F - - - - - - 0 mhos 0 - None None - -
03/29/2017 04:01 Dry 40.3F - 45F - - - - - - 0 mhos 0 - None None - -
03/29/2017 03:53 Dry 40.1F - 45F - - - - - - 0 mhos 0 - None None - -
03/29/2017 03:46 Dry 40.3F - 45F - - - - - - 0 mhos 0 - None None - -
Date/Time
(MDT)
Sf
Temp Chem Water Layer Surface Precipitation
Sfc Pvt Sub Frz Factor Pct Dpth DpthThk IcePct Cond Salin FI Type Intens Accum Rate
03/29/2017 03:43 Dry 40.5F - 45F - - - - - - 0 mhos 0 - None None - -
03/29/2017 03:33 Dry 40.5F - 45F - - - - - - 0 mhos 0 - None None - -
03/29/2017 03:31 Dry 40.5F - 45F - - - - - - 0 mhos 0 - None None - -
03/29/2017 03:23 Dry 40.5F - 45F - - - - - - 0 mhos 0 - None None - -
03/29/2017 03:16 Dry 40.6F - 45F - - - - - - 0 mhos 0 - None None - -
03/29/2017 03:13 Dry 40.6F - 45F - - - - - - 0 mhos 0 - None None - -
03/29/2017 03:03 Dry 40.6F - 45F - - - - - - 0 mhos 0 - None None - -
03/29/2017 03:01 Dry 40.6F - 45F - - - - - - 0 mhos 0 - None None - -
03/29/2017 02:53 Dry 40.8F - 45F - - - - - - 0 mhos 0 - None None - -
03/29/2017 02:46 Dry 40.8F - 45F - - - - - - 0 mhos 0 - None None - -
03/29/2017 02:43 Dry 40.8F - 45F - - - - - - 0 mhos 0 - None None - -
03/29/2017 02:33 Dry 40.8F - 45F - - - - - - 0 mhos 0 - None None - -
03/29/2017 02:31 Dry 41.0F - 45F - - - - - - 0 mhos 0 - None None - -
03/29/2017 02:23 Dry 41.0F - 45F - - - - - - 0 mhos 0 - None None - -
03/29/2017 02:16 Dry 41.0F - 45F - - - - - - 0 mhos 0 - None None - -
Date/Time
(MDT)
Sf
Temp Chem Water Layer Surface Precipitation
Sfc Pvt Sub Frz Factor Pct Dpth DpthThk IcePct Cond Salin FI Type Intens Accum Rate
03/29/2017 02:13 Dry 41.0F - 45F - - - - - - 0 mhos 0 - None None - -
03/29/2017 02:03 Dry 41.2F - 45F - - - - - - 0 mhos 0 - None None - -
03/29/2017 02:01 Dry 41.2F - 45F - - - - - - 0 mhos 0 - None None - -
03/29/2017 01:53 Dry 41.2F - 45F - - - - - - 0 mhos 0 - None None - -
03/29/2017 01:46 Dry 41.2F - 45F - - - - - - 0 mhos 0 - None None - -
03/29/2017 01:43 Dry 41.2F - 45F - - - - - - 0 mhos 0 - None None - -
03/29/2017 01:33 Dry 41.2F - 45F - - - - - - 0 mhos 0 - None None - -
03/29/2017 01:31 Dry 41.2F - 45F - - - - - - 0 mhos 0 - None None - -
03/29/2017 01:23 Dry 41.2F - 45F - - - - - - 0 mhos 0 - None None - -
03/29/2017 01:16 Dry 41.2F - 45F - - - - - - 0 mhos 0 - None None - -
03/29/2017 01:13 Dry 41.2F - 45F - - - - - - 0 mhos 0 - None None - -
03/29/2017 01:02 Dry 41.4F - 45F - - - - - - 0 mhos 0 - None None - -
03/29/2017 01:01 Dry 41.2F - 45F - - - - - - 0 mhos 0 - None None - -
03/29/2017 00:52 Dry 41.4F - 45F - - - - - - 0 mhos 0 - None None - -
Change End Date:

Copyright © 1998-2015 Vaisala, Inc.
All Rights Reserved
Send comments about the data to:
SCAN Web ® is a registered trademark of Vaisala, Inc.
SCAN Web Version 6.0